STARLINK-1724 (46375 NORAD) Tracking and Keplerian Element Data

This shows tracking and keplerian element data for the satellite.

Feedback or suggestion? Click here.




ElementValue
Catalog46375
NameSTARLINK-1724
Epoch Orbit1393
Epoch Day331.16668981
Epoch Year2020
RAAN19.6301
Inclination52.9981
Eccentricity0.0002992
Argument of Perigee16.8709
Mean Anonmoly352.3029
Mean Motion15.62836124
Decay Rate-0.00058206
L11 46375U 20062BC 20331.16668981 -.00058206 00000-0 -63215-3 0 9992
L22 46375 52.9981 19.6301 0002992 16.8709 352.3029 15.62836124 13932

Live tracking and technical data element details for STARLINK-1724 (NORAD 46375). STARLINK-1724 can be tracked NOW for your location showing map with azimuth and elevation plus other details from your city location.

Track the satellite on the map from your city or location and see movement details for azimuth, elevation, latitude, longitude, range, height, and movement on the map or in text.







IsCatalogInMostPopularTable: catalog: 46375, numindb: 24
Update: records affected: 1



GetName: 46375 STARLINK-1724

Hit Count: updated at: Fri, 27 Nov 2020 00:34:16 GMT